This is the latest recevied weather packets stored in our database for station/object OE6ACM-10. If no packets are shown the sender has not sent any weather packets the latest 10 day(s).
| Time | Temp. | Humidity | Pressure | Rain* | Wind** | Luminosity | Snow |
|---|---|---|---|---|---|---|---|
| 1788535645 | 42.22° C | 50% | 927 hPa | - | - | - | - |
| 1788535345 | 43.33° C | 47% | 927.1 hPa | - | - | - | - |
| 1788535045 | 43.33° C | 47% | 927.1 hPa | - | - | - | - |
| 1788534745 | 42.78° C | 49% | 927.2 hPa | - | - | - | - |
| 1788534445 | 42.78° C | 47% | 927.2 hPa | - | - | - | - |
| 1788534145 | 43.89° C | 45% | 927.2 hPa | - | - | - | - |
| 1788533845 | 44.44° C | 42% | 927.3 hPa | - | - | - | - |
| 1788533545 | 45.56° C | 41% | 927.3 hPa | - | - | - | - |
| 1788533245 | 45.56° C | 45% | 927.3 hPa | - | - | - | - |
| 1788532945 | 45° C | 39% | 927.3 hPa | - | - | - | - |
| 1788532645 | 46.67° C | 39% | 927.3 hPa | - | - | - | - |
| 1788532345 | 46.11° C | 39% | 927.4 hPa | - | - | - | - |
| 1788532045 | 45.56° C | 43% | 927.4 hPa | - | - | - | - |
| 1788531745 | 45° C | 39% | 927.5 hPa | - | - | - | - |
| 1788531445 | 45° C | 46% | 927.5 hPa | - | - | - | - |
| 1788531145 | 45° C | 41% | 927.7 hPa | - | - | - | - |
| 1788530845 | 45° C | 40% | 927.8 hPa | - | - | - | - |
| 1788530545 | 46.67° C | 43% | 927.8 hPa | - | - | - | - |
| 1788530245 | 46.67° C | 39% | 927.8 hPa | - | - | - | - |
| 1788529945 | 45.56° C | 48% | 927.9 hPa | - | - | - | - |
| 1788529645 | 44.44° C | 52% | 927.9 hPa | - | - | - | - |
| 1788529345 | 42.22° C | 53% | 927.9 hPa | - | - | - | - |
| 1788529045 | 41.67° C | 48% | 928 hPa | - | - | - | - |
| 1788528745 | 41.67° C | 55% | 928 hPa | - | - | - | - |
| 1788528445 | 41.11° C | 56% | 928.1 hPa | - | - | - | - |
* Rain since midnight (hover to see other rain measurements)
** Current wind speed in m/s (hover to see current wind gust speed)